Regional Weather Roundup
Issued by NWS

Home | Current Version | Previous Version | Text Only | Print | Product List | Glossary On
Versions: 1 2 3 4 5 6 7 8 9 10 11 12 13 14 15 16 17 18 19 20 21 22 23 24 25 26 27
000
ASCA42 TJSJ 102210
RWRPR
PUERTO RICO/U.S. VIRGIN ISLANDS HOURLY WEATHER ROUNDUP
NATIONAL WEATHER SERVICE SAN JUAN PR
600 PM AST SAT DEC 10 2016

PRZ001>002-007>008-010-102300-
PUERTO RICO

CITY           SKY/WX    TMP DP  RH WIND       PRES   REMARKS
SAN JUAN LMM   PTCLDY    82  75  78 E8        30.03R
AGUADILLA      PTCLDY    79  73  83 E15       30.05R
CEIBA          CLEAR     81  73  78 E6        30.06R
$$

VIZ001>002-102300-
U.S. VIRGIN ISLANDS

CITY           SKY/WX    TMP DP  RH WIND       PRES   REMARKS
CHARLOTTE AMA  CLEAR     81  73  78 E7        30.03R
CHRISTIANSTED  PTCLDY    81  72  74 E9        30.03R
$$

HOURLY WEATHER ROUNDUP FOR THE NEWS MEDIA

CITY           SKY/WX    TMP DP  RH WIND       PRES   REMARKS
ORLANDO        MOCLDY    67  52  58 NE10      30.31R
NEW YORK       MOCLDY    36  14  40 W13G18    30.39R WCI  27
NEWARK         PTCLDY    33  17  51 W12       30.39R WCI  24
CHICAGO        LGT SNOW  23  15  71 SW7       30.41S WCI  15
HARTFORD       CLEAR     27   6  41 VRB3      30.32R
BOSTON         PTCLDY    27   4  37 NW12      30.34R WCI  17
DALLAS         CLOUDY    49  30  48 S16       30.26F
PHILADELPHIA   MOCLDY    36  13  38 NW8       30.43R WCI  30
LOS ANGELES    PTSUNNY   63  55  75 W10       30.12F HAZE
WASHINGTON DC  PTCLDY    30  10  43 NW12      30.48R WCI  20



USA.gov is the U.S. government's official web portal to all federal, state and local government web resources and services.